TimeCST,TemperatureF,Dew PointF,Humidity,Sea Level PressureIn,VisibilityMPH,Wind Direction,Wind SpeedMPH,Gust SpeedMPH,PrecipitationIn,Events,Conditions,WindDirDegrees,DateUTC
12:15 AM,17.6,8.6,68,29.85,10.0,SSW,13.8,21.9,N/A,,Overcast,210,2011-12-07 06:15:00
12:35 AM,15.8,6.8,68,29.83,10.0,SSW,16.1,21.9,N/A,,Overcast,210,2011-12-07 06:35:00
12:55 AM,15.8,6.8,68,29.82,10.0,SSW,12.7,21.9,N/A,,Overcast,210,2011-12-07 06:55:00
1:15 AM,17.6,6.8,63,29.80,10.0,SW,16.1,23.0,N/A,,Overcast,220,2011-12-07 07:15:00
1:35 AM,17.6,6.8,63,29.80,10.0,SSW,16.1,23.0,N/A,,Overcast,210,2011-12-07 07:35:00
2:15 AM,17.6,6.8,63,29.80,10.0,SSW,15.0,19.6,N/A,,Overcast,210,2011-12-07 08:15:00
2:35 AM,17.6,8.6,68,29.80,10.0,SW,15.0,21.9,N/A,,Overcast,230,2011-12-07 08:35:00
2:55 AM,17.6,8.6,68,29.80,10.0,SW,12.7,-,N/A,,Overcast,220,2011-12-07 08:55:00
3:15 AM,17.6,8.6,68,29.79,10.0,SW,13.8,-,N/A,,Overcast,220,2011-12-07 09:15:00
3:35 AM,17.6,8.6,68,29.79,10.0,SW,13.8,-,N/A,,Overcast,230,2011-12-07 09:35:00
3:55 AM,17.6,8.6,68,29.81,10.0,WSW,13.8,18.4,N/A,,Mostly Cloudy,240,2011-12-07 09:55:00
4:55 AM,17.6,8.6,68,29.80,10.0,WSW,11.5,-,N/A,,Overcast,240,2011-12-07 10:55:00
5:15 AM,17.6,8.6,68,29.80,10.0,WSW,11.5,-,N/A,,Overcast,240,2011-12-07 11:15:00
5:35 AM,17.6,10.4,73,29.80,10.0,WSW,11.5,-,N/A,,Overcast,240,2011-12-07 11:35:00
5:55 AM,17.6,10.4,73,29.81,10.0,SW,9.2,-,N/A,,Overcast,230,2011-12-07 11:55:00
6:15 AM,17.6,10.4,73,29.81,10.0,WSW,11.5,-,N/A,,Overcast,250,2011-12-07 12:15:00
6:35 AM,17.6,10.4,73,29.81,10.0,WSW,8.1,-,N/A,,Overcast,250,2011-12-07 12:35:00
7:15 AM,17.6,10.4,73,29.82,10.0,WSW,10.4,-,N/A,,Overcast,250,2011-12-07 13:15:00
7:35 AM,17.6,10.4,73,29.82,10.0,West,12.7,-,N/A,,Mostly Cloudy,260,2011-12-07 13:35:00
7:55 AM,17.6,10.4,73,29.83,10.0,WSW,11.5,-,N/A,,Overcast,250,2011-12-07 13:55:00
8:15 AM,17.6,10.4,73,29.84,10.0,West,11.5,-,N/A,,Overcast,260,2011-12-07 14:15:00
8:35 AM,17.6,12.2,79,29.84,10.0,WSW,11.5,-,N/A,,Overcast,250,2011-12-07 14:35:00
8:55 AM,19.4,12.2,74,29.85,10.0,West,13.8,-,N/A,,Overcast,260,2011-12-07 14:55:00
9:15 AM,19.4,12.2,74,29.85,10.0,WSW,12.7,-,N/A,,Overcast,240,2011-12-07 15:15:00
9:35 AM,19.4,12.2,74,29.85,10.0,WSW,11.5,-,N/A,,Overcast,240,2011-12-07 15:35:00
9:55 AM,19.4,14.0,80,29.85,10.0,WSW,11.5,-,N/A,,Overcast,240,2011-12-07 15:55:00
10:15 AM,19.4,14.0,80,29.86,10.0,WSW,10.4,-,N/A,,Overcast,250,2011-12-07 16:15:00
10:35 AM,21.2,14.0,74,29.86,10.0,WSW,9.2,-,N/A,,Overcast,250,2011-12-07 16:35:00
10:55 AM,21.2,17.6,86,29.86,10.0,West,9.2,-,N/A,,Overcast,260,2011-12-07 16:55:00
11:15 AM,21.2,15.8,80,29.86,10.0,West,11.5,-,N/A,,Overcast,260,2011-12-07 17:15:00
12:35 PM,24.8,17.6,74,29.85,10.0,West,12.7,-,N/A,,Mostly Cloudy,270,2011-12-07 18:35:00
12:55 PM,26.6,17.6,69,29.85,10.0,WSW,8.1,-,N/A,,Overcast,250,2011-12-07 18:55:00
1:15 PM,26.6,17.6,69,29.85,10.0,West,11.5,-,N/A,,Overcast,280,2011-12-07 19:15:00
1:35 PM,26.6,17.6,69,29.85,10.0,West,10.4,-,N/A,,Mostly Cloudy,270,2011-12-07 19:35:00
1:55 PM,26.6,17.6,69,29.85,10.0,West,12.7,-,N/A,,Overcast,260,2011-12-07 19:55:00
2:15 PM,28.4,17.6,64,29.86,10.0,West,10.4,-,N/A,,Mostly Cloudy,260,2011-12-07 20:15:00
2:35 PM,26.6,15.8,64,29.86,10.0,West,10.4,-,N/A,,Mostly Cloudy,260,2011-12-07 20:35:00
2:55 PM,26.6,15.8,64,29.85,10.0,WSW,10.4,-,N/A,,Mostly Cloudy,240,2011-12-07 20:55:00
4:15 PM,26.6,15.8,64,29.87,10.0,WSW,9.2,-,N/A,,Scattered Clouds,240,2011-12-07 22:15:00
4:35 PM,24.8,14.0,64,29.88,10.0,WSW,9.2,-,N/A,,Scattered Clouds,240,2011-12-07 22:35:00
4:55 PM,24.8,15.8,69,29.88,10.0,WSW,8.1,-,N/A,,Partly Cloudy,240,2011-12-07 22:55:00
5:15 PM,24.8,15.8,69,29.88,10.0,WSW,6.9,-,N/A,,Partly Cloudy,240,2011-12-07 23:15:00
5:35 PM,24.8,15.8,69,29.88,10.0,SW,6.9,-,N/A,,Scattered Clouds,220,2011-12-07 23:35:00
6:15 PM,23.0,14.0,68,29.88,10.0,SW,9.2,-,N/A,,Partly Cloudy,220,2011-12-08 00:15:00
6:35 PM,23.0,15.8,74,29.88,10.0,SW,11.5,-,N/A,,Partly Cloudy,220,2011-12-08 00:35:00
6:55 PM,23.0,15.8,74,29.88,10.0,SW,10.4,-,N/A,,Mostly Cloudy,220,2011-12-08 00:55:00
7:15 PM,23.0,15.8,74,29.87,10.0,SW,11.5,-,N/A,,Overcast,220,2011-12-08 01:15:00
7:35 PM,23.0,15.8,74,29.87,10.0,SW,10.4,-,N/A,,Overcast,220,2011-12-08 01:35:00
7:55 PM,23.0,15.8,74,29.87,10.0,SW,9.2,-,N/A,,Overcast,220,2011-12-08 01:55:00
8:15 PM,23.0,15.8,74,29.86,10.0,SW,13.8,-,N/A,,Overcast,220,2011-12-08 02:15:00
8:35 PM,23.0,15.8,74,29.86,10.0,SW,12.7,-,N/A,,Overcast,220,2011-12-08 02:35:00
8:55 PM,24.8,15.8,69,29.85,10.0,SW,10.4,-,N/A,,Overcast,220,2011-12-08 02:55:00
9:15 PM,24.8,15.8,69,29.84,10.0,SW,10.4,-,N/A,,Overcast,220,2011-12-08 03:15:00
9:35 PM,24.8,14.0,64,29.83,10.0,SW,12.7,-,N/A,,Overcast,220,2011-12-08 03:35:00
9:55 PM,23.0,14.0,68,29.83,10.0,SW,10.4,-,N/A,,Mostly Cloudy,220,2011-12-08 03:55:00
10:55 PM,24.8,15.8,69,29.83,10.0,WSW,12.7,-,N/A,,Overcast,240,2011-12-08 04:55:00
11:15 PM,24.8,15.8,69,29.83,10.0,WSW,16.1,21.9,N/A,,Overcast,250,2011-12-08 05:15:00
11:35 PM,24.8,15.8,69,29.84,10.0,West,17.3,23.0,N/A,,Overcast,260,2011-12-08 05:35:00
11:55 PM,24.8,15.8,69,29.84,10.0,West,18.4,31.1,N/A,,Overcast,260,2011-12-08 05:55:00